Terminal Aerodrome Forecast
Issued by NWS

Home | Current Version | Previous Version | Text Only | Print | Product List | Glossary On
Versions: 1 2 3 4 5 6 7 8 9 10 11 12 13 14 15 16 17 18 19 20 21 22 23 24 25 26 27 28 29 30 31 32 33 34 35 36 37 38 39 40 41 42 43 44 45 46 47 48 49 50
000
FTUS41 KCTP 302350
TAFLNS
TAF
KLNS 302350Z 0100/0124 VRB03KT P6SM VCSH SCT060 BKN100
     FM010200 12005KT 4SM -SHRA BR VCTS BKN050CB
     FM010600 VRB03KT 2SM BR OVC015
     FM011400 13005KT P6SM BKN030
     FM011600 13005KT P6SM BKN050=

USA.gov is the U.S. government's official web portal to all federal, state and local government web resources and services.